FW9033 Weather Reports


Display with metric or nautical units.
time (UTC)temp
F
wind
direction
speed
MPH
gust
MPH
rain 1hr
in
rain 24hr
in
rain mn
in
humidity
%
barometer
mb
20260504081628 46 33 0.0 0.0 0.00 0.00 0.00 71 1013.4
20260504081123 46 46 0.0 0.0 0.00 0.00 0.00 70 1013.4
20260504080620 46 34 0.0 0.0 0.00 0.00 0.00 70 1013.6
20260504080117 46 33 1.0 1.0 0.00 0.00 0.00 69 1013.4
20260504050433 44 41 0.0 0.0 0.00 0.00 0.00 83 1013.9
20260504045930 44 40 0.0 0.0 0.00 0.00 0.00 83 1014.1
20260504045426 43 41 0.0 0.0 0.00 0.00 0.00 81 1014.2
20260504044922 42 43 0.0 0.0 0.00 0.00 0.00 81 1014.0
20260504044420 42 43 0.0 0.0 0.00 0.00 0.00 82 1014.0
20260504043917 41 43 0.0 0.0 0.00 0.00 0.00 83 1014.2
20260504043414 41 43 0.0 0.0 0.00 0.00 0.00 83 1014.2
20260504042911 41 43 0.0 0.0 0.00 0.00 0.00 83 1014.2
20260504042408 41 43 0.0 0.0 0.00 0.00 0.00 83 1014.0
20260504041904 42 43 0.0 0.0 0.00 0.00 0.00 83 1014.2
20260504041400 42 42 0.0 0.0 0.00 0.00 0.00 85 1014.2
20260504040856 42 42 0.0 0.0 0.00 0.00 0.00 87 1014.1
20260504040354 42 44 0.0 0.0 0.00 0.00 0.00 89 1014.3
20260504035850 42 46 0.0 0.0 0.00 0.00 0.00 89 1014.1
20260504035348 42 43 0.0 0.0 0.00 0.00 0.00 88 1014.2
20260504034844 42 38 0.0 0.0 0.00 0.00 0.00 87 1014.1
20260504034342 42 37 0.0 0.0 0.00 0.00 0.00 87 1014.1
20260504033838 43 40 0.0 0.0 0.00 0.00 0.00 87 1013.9
20260504033337 42 40 0.0 0.0 0.00 0.00 0.00 84 1014.0
20260504032833 42 44 0.0 0.0 0.00 0.00 0.00 82 1014.0
20260504032330 42 44 0.0 0.0 0.00 0.00 0.00 82 1013.9
20260504031827 42 44 0.0 0.0 0.00 0.00 0.00 82 1013.7
20260504031324 43 44 0.0 0.0 0.00 0.00 0.00 83 1013.8
20260504030820 43 44 0.0 0.0 0.00 0.00 0.00 84 1013.9
20260504030318 43 44 0.0 0.0 0.00 0.00 0.00 83 1013.8
20260504025814 43 44 0.0 0.0 0.00 0.00 0.00 83 1013.8
20260504025311 44 44 0.0 0.0 0.00 0.00 0.00 83 1013.8
20260504024808 44 43 0.0 0.0 0.00 0.00 0.00 82 1014.0
20260504024304 44 44 0.0 0.0 0.00 0.00 0.00 79 1013.9
20260504023801 44 44 0.0 0.0 0.00 0.00 0.00 78 1013.6
20260504023257 44 44 0.0 0.0 0.00 0.00 0.00 77 1013.6
20260504022753 44 44 0.0 0.0 0.00 0.00 0.00 77 1013.6
20260504022250 45 44 0.0 0.0 0.00 0.00 0.00 78 1013.7
20260504021747 45 44 0.0 0.0 0.00 0.00 0.00 77 1013.7
20260504021244 45 44 0.0 0.0 0.00 0.00 0.00 75 1013.5
20260504020741 46 44 0.0 0.0 0.00 0.00 0.00 72 1013.5
20260504020237 45 44 0.0 0.0 0.00 0.00 0.00 67 1013.6
20260504015733 46 44 0.0 0.0 0.00 0.00 0.00 69 1013.3
20260504015230 46 44 0.0 0.0 0.00 0.00 0.00 70 1013.2
20260504014726 46 46 0.0 0.0 0.00 0.00 0.00 68 1013.3
20260504014223 46 51 0.0 0.0 0.00 0.00 0.00 63 1013.1
20260504013720 46 51 0.0 0.0 0.00 0.00 0.00 60 1013.1
20260504013218 47 51 0.0 0.0 0.00 0.00 0.00 60 1013.4
20260504012714 47 51 0.0 0.0 0.00 0.00 0.00 59 1013.0
20260504012212 47 51 0.0 0.0 0.00 0.00 0.00 56 1012.8
20260504011709 48 51 0.0 0.0 0.00 0.00 0.00 56 1013.0
20260504011206 48 52 0.0 0.0 0.00 0.00 0.00 55 1012.9
20260504010702 49 53 0.0 0.0 0.00 0.00 0.00 55 1012.9
20260504010157 49 54 0.0 0.0 0.00 0.00 0.00 54 1012.9
20260504005654 50 54 0.0 0.0 0.00 0.00 0.00 54 1012.7
20260504005151 50 54 0.0 0.0 0.00 0.00 0.00 53 1012.7
20260504004649 51 55 0.0 0.0 0.00 0.00 0.00 52 1012.8
20260504004146 51 58 0.0 0.0 0.00 0.00 0.00 50 1012.9
20260504003642 52 51 0.0 0.0 0.00 0.00 0.00 50 1012.7
20260504003139 52 58 0.0 0.0 0.00 0.00 0.00 48 1012.6
20260504002636 54 55 0.0 0.0 0.00 0.00 0.00 48 1012.6
20260504002134 54 52 0.0 0.0 0.00 0.00 0.00 47 1012.7
20260504001631 55 50 0.0 0.0 0.00 0.00 0.00 43 1012.6
20260504001127 56 50 0.0 0.0 0.00 0.00 0.00 41 1012.6
20260504000625 57 50 0.0 0.0 0.00 0.00 0.00 38 1012.7
20260504000122 57 50 0.0 0.0 0.00 0.00 0.00 38 1012.7
20260503235620 58 50 0.0 0.0 0.00 0.00 0.00 37 1012.7
20260503235116 58 51 0.0 0.0 0.00 0.00 0.00 36 1012.6
20260503234614 59 61 0.0 0.0 0.00 0.00 0.00 34 1012.7
20260503234112 59 17 2.0 3.0 0.00 0.00 0.00 34 1012.8
20260503233609 59 57 1.0 2.0 0.00 0.00 0.00 34 1012.4
20260503233104 59 11 2.0 3.0 0.00 0.00 0.00 34 1012.5
20260503232602 60 33 1.0 2.0 0.00 0.00 0.00 33 1012.4
20260503232059 60 351 1.0 2.0 0.00 0.00 0.00 34 1012.4
20260503231557 60 47 1.0 2.0 0.00 0.00 0.00 33 1012.4
20260503231053 61 324 4.0 6.0 0.00 0.00 0.00 33 1012.3
20260503230550 61 334 3.0 3.0 0.00 0.00 0.00 32 1012.4
20260503230047 61 53 2.0 3.0 0.00 0.00 0.00 31 1012.4
20260503225544 61 20 3.0 3.0 0.00 0.00 0.00 34 1012.4
20260503225039 61 342 4.0 7.0 0.00 0.00 0.00 32 1012.4
20260503224537 61 343 2.0 2.0 0.00 0.00 0.00 32 1012.4
20260503224034 61 9 2.0 2.0 0.00 0.00 0.00 33 1012.4
20260503223532 61 99 0.0 1.0 0.00 0.00 0.00 33 1012.4
20260503223027 61 37 2.0 3.0 0.00 0.00 0.00 33 1012.4
20260503222526 61 324 2.0 3.0 0.00 0.00 0.00 32 1012.4
20260503222024 61 17 3.0 3.0 0.00 0.00 0.00 33 1012.4
20260503221522 61 344 4.0 6.0 0.00 0.00 0.00 32 1012.5
20260503221019 62 42 3.0 7.0 0.00 0.00 0.00 32 1012.3
20260503220515 62 353 4.0 5.0 0.00 0.00 0.00 31 1012.5
20260503220012 62 12 2.0 2.0 0.00 0.00 0.00 31 1012.6
20260503215509 62 351 4.0 5.0 0.00 0.00 0.00 31 1012.5
20260503215006 64 5 1.0 2.0 0.00 0.00 0.00 31 1012.5
20260503214504 64 355 2.0 2.0 0.00 0.00 0.00 30 1012.7
20260503214000 64 355 3.0 3.0 0.00 0.00 0.00 31 1012.7
20260503213459 63 7 4.0 6.0 0.00 0.00 0.00 31 1012.6
20260503212955 63 347 4.0 6.0 0.00 0.00 0.00 32 1012.7
20260503212452 63 24 5.0 7.0 0.00 0.00 0.00 31 1012.8
20260503211949 64 18 8.0 11.0 0.00 0.00 0.00 29 1012.6
20260503211447 64 29 2.0 3.0 0.00 0.00 0.00 31 1012.4
20260503210942 64 52 1.0 2.0 0.00 0.00 0.00 31 1012.4
20260503210439 64 6 3.0 5.0 0.00 0.00 0.00 30 1012.9
20260503205934 63 354 5.0 7.0 0.00 0.00 0.00 30 1013.1
20260503205431 64 358 0.0 1.0 0.00 0.00 0.00 30 1012.7
20260503204927 64 49 0.0 1.0 0.00 0.00 0.00 30 1012.7
20260503204425 64 10 4.0 6.0 0.00 0.00 0.00 31 1012.8
20260503203922 63 43 0.0 1.0 0.00 0.00 0.00 31 1012.8
20260503203419 64 325 3.0 5.0 0.00 0.00 0.00 30 1012.7
20260503202916 64 14 5.0 6.0 0.00 0.00 0.00 29 1012.9
20260503202414 64 51 1.0 1.0 0.00 0.00 0.00 32 1012.8
20260503201912 63 341 4.0 5.0 0.00 0.00 0.00 30 1013.0
20260503201409 63 334 7.0 9.0 0.00 0.00 0.00 30 1013.2
20260503200907 63 288 6.0 9.0 0.00 0.00 0.00 30 1013.2
20260503200402 62 347 6.0 7.0 0.00 0.00 0.00 30 1013.2
20260503195859 63 71 2.0 3.0 0.00 0.00 0.00 31 1013.1
20260503195356 63 51 0.0 1.0 0.00 0.00 0.00 30 1013.3
20260503194853 64 279 3.0 5.0 0.00 0.00 0.00 30 1013.5
20260503194349 63 302 2.0 3.0 0.00 0.00 0.00 32 1013.4
20260503193845 63 336 0.0 0.0 0.00 0.00 0.00 30 1013.5
20260503193341 62 21 4.0 5.0 0.00 0.00 0.00 29 1013.7
20260503192837 63 35 3.0 3.0 0.00 0.00 0.00 31 1013.8
20260503192333 62 5 3.0 3.0 0.00 0.00 0.00 33 1013.9
20260503191830 61 341 5.0 8.0 0.00 0.00 0.00 31 1014.0
20260503191327 62 284 7.0 9.0 0.00 0.00 0.00 32 1014.0
20260503190823 61 332 5.0 7.0 0.00 0.00 0.00 32 1013.8
20260503190321 62 3 3.0 6.0 0.00 0.00 0.00 31 1014.2
20260503185818 61 12 7.0 8.0 0.00 0.00 0.00 30 1014.4
20260503185313 62 331 1.0 2.0 0.00 0.00 0.00 33 1014.4
20260503184808 61 40 3.0 3.0 0.00 0.00 0.00 31 1014.3
20260503184304 61 288 5.0 9.0 0.00 0.00 0.00 31 1014.3
20260503183800 61 346 3.0 5.0 0.00 0.00 0.00 33 1014.6
20260503183258 61 354 5.0 7.0 0.00 0.00 0.00 33 1014.8
20260503182755 62 11 5.0 10.0 0.00 0.00 0.00 33 1014.7
20260503182254 61 47 1.0 2.0 0.00 0.00 0.00 35 1014.8
20260503181750 60 319 2.0 3.0 0.00 0.00 0.00 36 1014.7
20260503181247 61 271 3.0 5.0 0.00 0.00 0.00 33 1014.6
20260503180744 59 334 2.0 2.0 0.00 0.00 0.00 36 1014.5
20260503180242 60 18 3.0 5.0 0.00 0.00 0.00 34 1014.9
20260503175738 60 37 3.0 5.0 0.00 0.00 0.00 36 1014.8
20260503175237 60 17 4.0 6.0 0.00 0.00 0.00 37 1014.7
20260503174732 58 26 1.0 2.0 0.00 0.00 0.00 36 1014.8
20260503174231 59 339 4.0 6.0 0.00 0.00 0.00 37 1015.1
20260503173730 59 327 3.0 3.0 0.00 0.00 0.00 36 1014.7
20260503173227 59 289 5.0 7.0 0.00 0.00 0.00 35 1015.2
20260503172724 59 314 6.0 8.0 0.00 0.00 0.00 36 1015.1
20260503172221 59 59 4.0 7.0 0.00 0.00 0.00 37 1014.9
20260503171717 59 351 6.0 7.0 0.00 0.00 0.00 36 1015.0
20260503171215 59 354 5.0 7.0 0.00 0.00 0.00 36 1015.4
20260503170711 59 22 3.0 5.0 0.00 0.00 0.00 38 1015.0
20260503170208 57 357 0.0 1.0 0.00 0.00 0.00 41 1015.5
20260503160130 55 33 3.0 5.0 0.00 0.00 0.00 42 1015.8
20260503150600 54 15 10.0 13.0 0.00 0.00 0.00 44 1016.0
20260503130949 49 49 2.0 5.0 0.00 0.00 0.00 54 1016.6
20260503130448 49 31 3.0 3.0 0.00 0.00 0.00 56 1016.5
20260503110338 41 29 3.0 5.0 0.00 0.00 0.00 72 1015.5
20260503090224 41 29 3.0 3.0 0.00 0.00 0.00 70 1014.6